Regional Weather Roundup
Issued by NWS

Home | Current Version | Previous Version | Graphics & Text | Print | Product List | Glossary On
Versions: 1 2 3 4 5 6 7 8 9 10 11 12 13 14 15 16 17 18 19 20 21 22 23 24 25 26 27 28 29 30 31 32 33 34 35 36 37 38 39 40 41 42 43 44 45 46 47 48 49 50
000
ASUS43 KIND 041859
RWRIN

WEATHER ROUNDUP FOR INDIANA
NATIONAL WEATHER SERVICE INDIANAPOLIS IN
200 PM EST WED MAR 04 2015

NOTE: "FAIR" INDICATES FEW OR NO CLOUDS BELOW 12,000 FEET WITH NO
SIGNIFICANT WEATHER AND/OR OBSTRUCTIONS TO VISIBILITY.

* - STATION DOES NOT REPORT WEATHER SUCH AS PRECIPITATION OR FOG.

+ - STATION NOT QUALITY CONTROLLED BY THE NATIONAL WEATHER SERVICE.
    USE DATA WITH CAUTION...ESPECIALLY DEWPOINT AND RELATIVE
    HUMIDITY OBSERVATIONS.

INZ001>003-010>013-019-020-042000-
NORTHWEST INDIANA

CITY           SKY/WX    TMP DP  RH WIND       PRES   REMARKS
VALPARAISO     NOT AVBL

$$

LMZ046-743>745-042000-
SOUTHERN LAKE MICHIGAN

STATION/POSITION TIME  TEMP WIND        PRES
                       AIR  DIR/SP/G
                 (UTC) (F)  (DEG/KT/KT) (MB)
MICHIGAN CITY    1800   22  310/ 16/ 20   N/A

$$

INZ004-005-014>016-021>024-042000-
NORTH CENTRAL INDIANA

CITY           SKY/WX    TMP DP  RH WIND       PRES   REMARKS
GOSHEN         CLOUDY    24  17  74 NW18      30.05R WCI  10
SOUTH BEND     CLOUDY    24  13  62 NW20      30.09R WCI  10

$$

INZ006>009-017-018-025>027-042000-
NORTHEAST INDIANA

CITY           SKY/WX    TMP DP  RH WIND       PRES   REMARKS
ANGOLA *+      PTSUNNY   27  18  69 NW16      30.00S WCI  14
FORT WAYNE     CLOUDY    31  22  69 W13       30.02F WCI  21

$$

INZ028-029-035-036-043>045-051>053-042000-
WEST CENTRAL INDIANA

CITY           SKY/WX    TMP DP  RH WIND       PRES   REMARKS
CRAWFORDSVL +  CLOUDY    20  10  66 NW15      30.13R WCI   6
GREENCASTLE +  CLOUDY    27  14  59 NW9       30.11S WCI  17
LAFAYETTE      CLOUDY    20  14  77 W13       30.14R WCI   7
TERRE HAUTE    CLOUDY    21  13  71 NW14      30.17R WCI   8

$$

INZ030>032-037>040-046>048-054>057-064-065-042000-
CENTRAL INDIANA

CITY           SKY/WX    TMP DP  RH WIND       PRES   REMARKS
ANDERSON       PTSUNNY   30  25  80 W12G17    30.05F WCI  21
COLUMBUS       CLOUDY    32  27  80 NW12      30.06F WCI  23
GREENWOOD *+   CLOUDY    28  21  74 NW13      30.06F WCI  18
INDIANAPOLIS   CLOUDY    27  20  75 NW14      30.06F WCI  16
-EAGLE CREEK   CLOUDY    25  19  78 NW14      30.07F WCI  13
KOKOMO *+        N/A    N/A N/A N/A MISG        N/A
MT COMFORT *+  CLOUDY    32  18  55 NW12      30.06F WCI  23
SHELBYVILLE    CLOUDY    33  26  75 NW12      30.04F WCI  24

$$

INZ033-034-041-042-049-050-058-059-042000-
EAST CENTRAL INDIANA

CITY           SKY/WX    TMP DP  RH WIND       PRES   REMARKS
MUNCIE         CLOUDY    30  25  81 NW12      30.02F HAZE    WCI  20

$$

INZ060-061-067>069-081>083-085>088-042000-
SOUTHWEST INDIANA

CITY           SKY/WX    TMP DP  RH WIND       PRES   REMARKS
EVANSVILLE     LGT SNOW  28  24  85 NW10G22   30.12F FOG     WCI  19
HUNTINGBURG *+ CLOUDY    28  25  86 N13G18    30.09S VSB 1/2 WCI  18

$$

INZ062-063-066-070>080-084-089>092-042000-
SOUTH CENTRAL AND SOUTHEAST INDIANA

CITY           SKY/WX    TMP DP  RH WIND       PRES   REMARKS
BLOOMINGTON    CLOUDY    31  25  78 NW7       30.07F WCI  24
SEYMOUR +      LGT SNOW  36  28  75 NW10      30.06S

$$




USA.gov is the U.S. government's official web portal to all federal, state and local government web resources and services.